• In Netherlands
  • List of Countries
  • For 7 days
  • Water Temperature
  • Satellite Maps
  • Weather Map
  • Weather Widgets
  • user-avatar
    Login

    Hourly Weather San Miguel de Tucumán

    Today, 28 February, Tuesday

    Time Temperature Precipitation Wind Pressure Humidity
    00:00 +26°C° 0.9 mm 1 mps 718 mmHg 79%
    01:00 +26°C° 0.9 mm 1 mps 718 mmHg 80%
    02:00 +25°C° 0 mm 1 mps 718 mmHg 81%
    03:00 +25°C° 0.9 mm 1 mps 718 mmHg 82%
    04:00 +25°C° 0.9 mm 1 mps 718 mmHg 82%
    05:00 +24°C° 0.9 mm 1 mps 718 mmHg 83%
    06:00 +26°C° 0.4 mm 1 mps 718 mmHg 78%
    07:00 +27°C° 0.4 mm 1 mps 719 mmHg 72%
    08:00 +29°C° 0.4 mm 1 mps 719 mmHg 67%
    09:00 +30°C° 0.2 mm 1 mps 719 mmHg 59%
    10:00 +32°C° 0.2 mm 1 mps 718 mmHg 51%
    11:00 +34°C° 0.2 mm 1 mps 718 mmHg 43%
    12:00 +36°C° 0.2 mm 2 mps 717 mmHg 41%
    13:00 +36°C° 0.2 mm 2 mps 717 mmHg 40%
    14:00 +37°C° 0.2 mm 2 mps 716 mmHg 39%
    15:00 +37°C° 0.2 mm 2 mps 715 mmHg 40%
    16:00 +36°C° 0.2 mm 3 mps 715 mmHg 41%
    17:00 +36°C° 0.2 mm 3 mps 714 mmHg 43%
    18:00 +34°C° 0.3 mm 2 mps 714 mmHg 51%
    19:00 +30°C° 0.3 mm 2 mps 714 mmHg 58%
    20:00 +28°C° 0.3 mm 2 mps 715 mmHg 66%
    21:00 +28°C° 0.2 mm 2 mps 715 mmHg 67%
    22:00 +27°C° 0.2 mm 2 mps 715 mmHg 67%
    23:00 +27°C° 0.2 mm 2 mps 716 mmHg 68%

    Tomorrow, 1 March, Wednesday

    Time Temperature Precipitation Wind Pressure Humidity
    00:00 +27°C° 0.1 mm 2 mps 715 mmHg 69%
    01:00 +26°C° 0.1 mm 2 mps 715 mmHg 70%
    02:00 +26°C° 0.1 mm 1 mps 715 mmHg 71%
    03:00 +26°C° 0 mm 1 mps 715 mmHg 72%
    04:00 +25°C° 0 mm 1 mps 714 mmHg 73%
    05:00 +25°C° 0 mm 1 mps 714 mmHg 75%
    06:00 +26°C° 0 mm 1 mps 715 mmHg 68%
    07:00 +28°C° 0 mm 1 mps 715 mmHg 62%
    08:00 +30°C° 0 mm 1 mps 716 mmHg 55%
    09:00 +32°C° 0 mm 1 mps 716 mmHg 50%
    10:00 +33°C° 0 mm 1 mps 716 mmHg 45%
    11:00 +36°C° 0 mm 2 mps 716 mmHg 40%
    12:00 +37°C° 0.1 mm 2 mps 715 mmHg 38%
    13:00 +37°C° 0.1 mm 2 mps 714 mmHg 36%
    14:00 +38°C° 0.1 mm 2 mps 714 mmHg 34%
    15:00 +38°C° 0.1 mm 3 mps 713 mmHg 35%
    16:00 +38°C° 0.1 mm 3 mps 713 mmHg 36%
    17:00 +38°C° 0.1 mm 3 mps 712 mmHg 37%
    18:00 +35°C° 0 mm 3 mps 712 mmHg 44%
    19:00 +33°C° 0 mm 3 mps 712 mmHg 51%
    20:00 +29°C° 0 mm 3 mps 713 mmHg 58%
    21:00 +29°C° 0 mm 3 mps 713 mmHg 61%
    22:00 +28°C° 0 mm 2 mps 713 mmHg 63%
    23:00 +28°C° 0 mm 2 mps 714 mmHg 65%

    Day after tomorrow, 2 March, Thursday

    Time Temperature Precipitation Wind Pressure Humidity
    00:00 +27°C° 0 mm 2 mps 713 mmHg 66%
    01:00 +27°C° 0 mm 3 mps 713 mmHg 67%
    02:00 +27°C° 0 mm 3 mps 712 mmHg 68%
    03:00 +26°C° 0 mm 3 mps 712 mmHg 68%
    04:00 +26°C° 0 mm 3 mps 712 mmHg 68%
    05:00 +26°C° 0 mm 3 mps 712 mmHg 68%
    06:00 +27°C° 0 mm 3 mps 712 mmHg 62%
    07:00 +29°C° 0 mm 3 mps 712 mmHg 57%
    08:00 +31°C° 0 mm 3 mps 713 mmHg 51%
    09:00 +34°C° 0 mm 3 mps 713 mmHg 45%
    10:00 +36°C° 0 mm 4 mps 713 mmHg 39%
    11:00 +38°C° 0 mm 4 mps 713 mmHg 34%
    12:00 +40°C° 0 mm 5 mps 712 mmHg 32%
    13:00 +41°C° 0 mm 5 mps 712 mmHg 31%
    14:00 +42°C° 0 mm 5 mps 711 mmHg 29%
    15:00 +41°C° 0 mm 5 mps 711 mmHg 31%
    16:00 +41°C° 0 mm 5 mps 711 mmHg 33%
    17:00 +40°C° 0 mm 5 mps 710 mmHg 35%
    18:00 +37°C° 0.4 mm 4 mps 711 mmHg 44%
    19:00 +34°C° 0.4 mm 4 mps 712 mmHg 52%
    20:00 +31°C° 0.4 mm 3 mps 712 mmHg 60%
    21:00 +30°C° 1 mm 3 mps 713 mmHg 62%
    22:00 +30°C° 1 mm 2 mps 713 mmHg 64%
    23:00 +29°C° 1 mm 2 mps 714 mmHg 66%

    3 March, Friday

    Time Temperature Precipitation Wind Pressure Humidity
    00:00 +29°C° 1.3 mm 3 mps 714 mmHg 68%
    01:00 +28°C° 1.3 mm 4 mps 714 mmHg 71%
    02:00 +27°C° 1.3 mm 5 mps 714 mmHg 73%
    03:00 +26°C° 2.7 mm 5 mps 715 mmHg 80%
    04:00 +26°C° 2.7 mm 5 mps 715 mmHg 86%
    05:00 +25°C° 2.7 mm 5 mps 716 mmHg 93%
    06:00 +23°C° 4.5 mm 5 mps 717 mmHg 94%
    07:00 +23°C° 4.5 mm 4 mps 717 mmHg 94%
    08:00 +23°C° 4.5 mm 4 mps 718 mmHg 94%
    09:00 +23°C° 4.8 mm 4 mps 719 mmHg 95%
    10:00 +23°C° 4.8 mm 4 mps 719 mmHg 95%
    11:00 +23°C° 4.8 mm 4 mps 719 mmHg 95%
    12:00 +23°C° 2.2 mm 4 mps 719 mmHg 94%
    13:00 +23°C° 2.2 mm 4 mps 718 mmHg 94%
    14:00 +23°C° 2.2 mm 4 mps 718 mmHg 93%
    15:00 +24°C° 0.3 mm 3 mps 718 mmHg 92%
    16:00 +24°C° 0.3 mm 3 mps 717 mmHg 92%
    17:00 +24°C° 0.3 mm 3 mps 717 mmHg 91%
    18:00 +22°C° 0.1 mm 3 mps 717 mmHg 92%
    19:00 +23°C° 0.1 mm 2 mps 718 mmHg 93%
    20:00 +23°C° 0.1 mm 2 mps 719 mmHg 94%
    21:00 +23°C° 0 mm 2 mps 719 mmHg 95%
    22:00 +21°C° 0 mm 2 mps 719 mmHg 95%
    23:00 +21°C° 0 mm 2 mps 719 mmHg 95%

    4 March, Saturday

    Time Temperature Precipitation Wind Pressure Humidity
    00:00 +21°C° 0 mm 2 mps 718 mmHg 95%
    01:00 +20°C° 0 mm 2 mps 718 mmHg 95%
    02:00 +20°C° 0 mm 2 mps 717 mmHg 94%
    03:00 +21°C° 0 mm 1 mps 717 mmHg 94%
    04:00 +21°C° 0 mm 1 mps 717 mmHg 93%
    05:00 +20°C° 0 mm 1 mps 717 mmHg 93%
    06:00 +21°C° 0 mm 1 mps 717 mmHg 90%
    07:00 +21°C° 0 mm 2 mps 718 mmHg 87%
    08:00 +21°C° 0 mm 2 mps 718 mmHg 84%
    09:00 +24°C° 0 mm 2 mps 718 mmHg 75%
    10:00 +26°C° 0 mm 3 mps 718 mmHg 66%
    11:00 +28°C° 0 mm 3 mps 718 mmHg 57%
    12:00 +29°C° 0 mm 3 mps 717 mmHg 53%
    13:00 +30°C° 0 mm 3 mps 717 mmHg 50%
    14:00 +31°C° 0 mm 3 mps 716 mmHg 46%
    15:00 +31°C° 0 mm 3 mps 716 mmHg 47%
    16:00 +31°C° 0 mm 3 mps 716 mmHg 48%
    17:00 +31°C° 0 mm 3 mps 716 mmHg 48%
    18:00 +28°C° 0 mm 2 mps 716 mmHg 58%
    19:00 +26°C° 0 mm 2 mps 716 mmHg 68%
    20:00 +23°C° 0 mm 1 mps 717 mmHg 77%
    21:00 +23°C° 0 mm 1 mps 717 mmHg 79%
    22:00 +23°C° 0 mm 1 mps 717 mmHg 82%
    23:00 +22°C° 0 mm 1 mps 718 mmHg 84%

    5 March, Sunday

    Time Temperature Precipitation Wind Pressure Humidity
    00:00 +22°C° 0 mm 1 mps 718 mmHg 85%
    01:00 +22°C° 0 mm 1 mps 717 mmHg 87%
    02:00 +22°C° 0 mm 1 mps 717 mmHg 89%
    03:00 +22°C° 0.1 mm 1 mps 717 mmHg 90%
    04:00 +21°C° 0.1 mm 1 mps 717 mmHg 91%
    05:00 +21°C° 0.1 mm 1 mps 717 mmHg 93%
    06:00 +22°C° 0.1 mm 1 mps 718 mmHg 90%
    07:00 +23°C° 0.1 mm 1 mps 718 mmHg 86%
    08:00 +24°C° 0.1 mm 1 mps 719 mmHg 83%
    09:00 +26°C° 0.1 mm 1 mps 719 mmHg 79%
    10:00 +27°C° 0.1 mm 2 mps 719 mmHg 74%
    11:00 +28°C° 0.1 mm 2 mps 719 mmHg 70%
    12:00 +28°C° 0.1 mm 2 mps 718 mmHg 69%
    13:00 +29°C° 0.1 mm 2 mps 717 mmHg 68%
    14:00 +29°C° 0.1 mm 2 mps 717 mmHg 67%
    15:00 +29°C° 0.2 mm 2 mps 717 mmHg 70%
    16:00 +28°C° 0.2 mm 2 mps 717 mmHg 74%
    17:00 +28°C° 0.2 mm 2 mps 717 mmHg 77%
    18:00 +27°C° 0.3 mm 2 mps 717 mmHg 82%
    19:00 +26°C° 0.3 mm 2 mps 718 mmHg 86%
    20:00 +24°C° 0.3 mm 2 mps 719 mmHg 91%
    21:00 +24°C° 0.7 mm 2 mps 719 mmHg 92%
    22:00 +24°C° 0.7 mm 2 mps 720 mmHg 92%
    23:00 +24°C° 0.7 mm 2 mps 720 mmHg 93%
    Show more